Temp
58 50 45 51 52 55 54 51 50 56 62 55 54 55 60 63 64 68 65 62 64 68 73 67 66 66 65 65 66 67 67 66 67 67 66 66 75 72 72 73 75 75 74 75
52 46 58 61 61 56 54 51 49 55 61 57 55 54 61 60 63 62 63 63 64 62 62 64 63 64 63 63 63 63 65 64 64 65 64 66 66 66 68 69 71 73 73 74
47 55 64 61 58 56 54 51 50 51 57 57 53 49 54 59 62 65 65 64 63 62 61 62 64 63 62 62 62 63 63 64 64 64 64 65 66 66 67 65 66 69 71 71
52 61 60 57 55 56 48 58 58 55 48 39 53 37 50 54 56 61 63 62 62 62 63 65 65 62 62 62 62 62 62 63 64 63 63 62 60 61 67 69 70 68 72 71
53 56 55 53 56 60 53 60 56 53 46 39 43 37 48 52 54 56 60 63 63 62 65 63 64 65 62 62 60 61 62 61 62 62 62 60 59 60 63 65 67 68 69 71
56 63 60 58 63 61 62 54 49 45 40 34 42 40 45 49 52 54 60 63 67 70 65 67 65 63 62 62 61 60 60 61 62 62 62 60 59 59 59 61 63 65 66 67
55 56 62 63 55 60 52 42 32 29 30 34 46 40 45 53 57 59 58 61 66 68 61 61 62 63 63 61 60 62 61 59 60 61 62 62 61 60 60 61 61 62 63 65
42 42 55 63 56 51 49 47 40 27 26 35 44 35 43 56 60 61 62 64 59 59 62 63 64 64 65 64 62 64 61 59 60 61 61 60 61 60 60 62 61 62 62 65
42 44 59 62 60 55 47 41 47 40 38 29 33 42 52 58 57 59 60 62 60 58 59 63 64 66 63 61 62 61 62 62 63 62 61 60 60 59 59 60 60 60 62 66
49 40 55 58 60 56 51 53 40 37 26 26 31 36 39 47 51 54 55 60 62 61 62 62 62 63 63 62 64 62 63 65 64 64 62 63 61 61 61 60 60 60 61 62
51 45 46 52 48 45 44 42 38 36 33 29 25 31 45 46 49 49 52 60 58 59 60 61 60 60 61 62 61 61 60 64 62 61 64 61 61 62 62 62 62 61 60 61
51 43 37 43 52 54 48 41 37 28 27 33 32 33 53 51 55 52 54 56 57 59 59 57 57 58 60 60 61 61 60 62 65 65 64 63 63 61 61 61 62 61 62 61
49 39 30 34 41 45 41 43 39 37 36 31 29 30 53 53 50 51 52 57 58 58 59 59 61 59 59 60 61 60 60 62 64 63 63 62 61 61 62 62 62 61 62 62
51 39 36 30 38 42 39 42 42 39 30 31 34 40 47 50 49 51 50 53 56 58 62 64 60 58 62 61 60 61 60 60 60 60 58 59 60 61 63 63 61 61 62 62
44 36 37 39 43 43 42 40 40 37 39 32 39 41 45 45 46 46 49 51 54 58 62 62 65 63 59 58 60 62 62 61 61 62 60 60 59 58 58 58 59 61 61 64
40 33 35 34 42 42 39 42 41 44 44 42 43 42 44 45 46 47 47 50 49 51 53 57 59 58 56 57 58 60 61 60 61 59 59 60 59 59 58 57 58 58 59 60
37 33 30 27 39 38 32 40 42 41 41 40 34 39 44 44 46 46 45 47 49 52 53 53 55 57 57 55 57 59 59 59 58 58 59 60 59 59 58 58 58 57 56 57
37 33 29 25 31 20 38 46 46 39 39 42 39 43 49 47 47 49 49 46 49 51 52 52 55 55 56 56 55 55 56 58 58 59 59 60 60 59 57 56 54 53 52 53
42 35 28 24 21 34 39 42 40 38 38 46 45 48 48 47 46 46 51 51 50 49 51 51 56 58 57 56 56 55 55 55 57 58 59 58 56 55 54 53 52 53 54 57
41 39 33 24 21 22 33 44 48 45 33 45 45 43 42 42 36 40 48 49 48 49 50 50 52 54 53 53 53 51 52 52 51 53 54 55 54 53 53 53 54 57 58 58
31 31 23 24 26 32 42 44 49 31 32 44 42 40 39 36 39 45 48 48 48 47 49 52 52 51 53 54 54 52 51 51 54 55 54 54 55 55 56 56 56 56 55 56
33 30 28 31 29 25 44 44 37 39 44 44 42 41 40 42 44 45 45 47 46 47 48 50 48 49 51 52 51 50 50 53 54 54 54 54 56 56 57 56 55 55 55 54
32 38 31 31 31 40 45 43 42 44 41 42 41 42 42 41 43 46 46 46 45 45 46 48 46 47 48 50 50 47 50 52 52 52 51 52 53 54 56 53 52 52 53 51
40 43 38 35 38 38 41 42 42 43 40 42 44 44 44 42 45 44 46 45 45 47 45 47 45 44 45 48 49 49 51 52 51 49 49 50 49 50 52 52 51 50 50 50
37 38 33 34 38 40 43 44 45 45 46 45 45 43 43 44 42 41 42 42 42 44 45 45 44 42 43 46 46 48 50 51 48 48 48 49 49 49 49 49 50 50 51 52
39 34 27 28 40 39 40 45 45 43 42 43 41 42 45 43 41 43 40 40 42 41 43 42 43 43 44 46 47 48 50 49 47 46 46 47 48 49 49 49 49 47 47 46
MSLP
1009.15 1010.14 1010.19 1009.89 1010.02 1009.90 1009.87 1009.60 1009.04 1008.03 1007.63 1007.41 1007.23 1006.81 1006.03 1005.59 1004.90 1004.25 1004.10 1004.49 1004.41 1004.47 1004.03 1004.40 1004.99 1005.57 1006.19 1006.32 1006.91 1007.33 1007.61 1008.07 1008.18 1008.35 1008.35 1008.32 1008.17 1008.68 1009.91 1009.89 1009.26 1009.74 1009.31 1009.89
1009.91 1009.93 1009.10 1009.09 1009.14 1009.32 1009.21 1009.11 1008.55 1007.80 1007.40 1007.29 1006.97 1006.63 1005.59 1005.23 1004.78 1004.02 1003.89 1004.07 1004.14 1004.55 1004.74 1004.96 1005.15 1005.64 1005.97 1006.17 1006.71 1007.09 1007.48 1007.87 1008.28 1008.57 1009.10 1009.27 1009.49 1009.27 1008.48 1008.06 1008.61 1009.95 1009.51 1009.91
1009.87 1009.05 1008.38 1008.54 1008.29 1008.32 1008.21 1008.04 1007.88 1007.75 1007.31 1007.24 1007.45 1006.78 1005.96 1005.11 1004.76 1004.26 1003.64 1003.57 1003.79 1004.05 1004.68 1005.08 1005.21 1005.30 1005.67 1006.10 1006.32 1006.59 1006.94 1007.31 1007.78 1008.17 1008.52 1008.87 1009.22 1009.16 1008.89 1008.80 1007.85 1008.27 1009.93 1009.92
1008.95 1008.12 1008.05 1007.79 1007.62 1007.53 1007.54 1007.23 1007.41 1007.68 1007.99 1008.58 1008.35 1007.78 1006.67 1005.57 1005.13 1004.65 1004.08 1004.01 1003.89 1004.15 1004.15 1004.35 1004.69 1005.08 1005.16 1005.57 1005.94 1006.38 1006.92 1007.09 1007.36 1007.73 1008.07 1008.66 1009.27 1009.49 1009.22 1008.65 1008.40 1007.75 1009.07 1009.58
1008.03 1007.81 1007.49 1007.32 1007.01 1006.86 1006.97 1006.85 1007.20 1007.73 1008.32 1008.86 1009.12 1009.16 1005.58 1005.93 1004.99 1004.46 1004.04 1003.57 1003.31 1003.41 1003.73 1004.11 1004.17 1004.33 1004.93 1005.43 1005.96 1006.41 1006.68 1007.31 1007.54 1007.73 1008.19 1008.72 1009.11 1009.29 1009.49 1009.39 1009.04 1008.92 1008.70 1009.07
1007.33 1006.52 1006.75 1006.32 1006.13 1006.25 1006.43 1007.00 1007.66 1008.28 1009.09 1009.23 1009.09 1008.97 1006.53 1006.04 1004.94 1004.29 1003.70 1003.24 1002.58 1002.03 1002.14 1002.77 1003.43 1003.89 1004.64 1005.21 1005.70 1006.25 1006.83 1007.18 1007.43 1007.61 1008.01 1008.69 1009.15 1009.36 1009.64 1009.62 1009.71 1009.93 1009.64 1009.38
1006.85 1006.55 1005.83 1005.71 1005.86 1005.82 1006.53 1007.65 1008.96 1009.61 1010.19 1008.99 1008.97 1008.61 1006.53 1005.09 1004.55 1003.80 1003.46 1002.83 1001.93 1001.31 1001.48 1002.32 1003.19 1004.09 1004.79 1005.12 1005.60 1006.11 1006.56 1007.03 1007.25 1007.54 1008.02 1008.44 1008.64 1008.91 1009.04 1009.46 1009.63 1009.50 1009.34 1009.58
1006.76 1006.20 1005.55 1005.07 1005.21 1005.69 1006.31 1007.27 1008.70 1009.71 1010.69 1009.88 1009.17 1007.73 1005.59 1004.58 1003.68 1003.16 1002.99 1002.19 1001.73 1000.28 1000.29 1001.50 1002.18 1003.33 1003.82 1004.37 1005.14 1005.62 1006.19 1006.69 1006.92 1007.15 1007.44 1007.59 1007.80 1008.21 1008.32 1008.29 1008.46 1008.51 1008.83 1008.94
1006.05 1005.76 1004.97 1004.81 1005.02 1005.51 1006.14 1007.24 1008.14 1010.03 1011.20 1011.41 1010.13 1007.91 1005.83 1004.55 1003.75 1003.24 1002.59 1002.31 1003.18 1002.09 1001.83 1001.84 1002.72 1002.92 1003.31 1004.14 1004.77 1005.12 1005.61 1005.93 1006.20 1006.48 1006.80 1007.21 1007.38 1007.69 1007.86 1007.91 1008.18 1008.47 1008.47 1008.53
1005.77 1005.69 1005.34 1005.15 1005.15 1005.58 1006.32 1007.10 1008.82 1010.68 1012.17 1011.59 1009.85 1008.36 1006.58 1005.11 1004.32 1003.36 1002.79 1002.61 1003.80 1004.09 1003.55 1003.40 1003.27 1003.23 1003.35 1003.59 1003.75 1004.42 1004.92 1005.17 1005.33 1005.61 1005.93 1006.31 1006.64 1006.83 1007.11 1007.48 1007.87 1008.16 1008.03 1008.10
1005.82 1006.21 1006.25 1005.97 1006.05 1006.45 1007.19 1008.14 1009.73 1011.07 1011.80 1011.79 1010.96 1008.35 1006.21 1005.53 1004.61 1003.96 1003.81 1003.47 1003.80 1004.51 1004.83 1004.89 1004.82 1003.71 1003.30 1003.38 1003.55 1003.86 1004.26 1004.45 1004.76 1004.95 1005.25 1005.65 1005.95 1005.99 1006.26 1006.77 1006.92 1006.89 1007.12 1007.30
1006.55 1006.99 1007.46 1007.33 1006.76 1006.75 1007.48 1008.72 1009.99 1011.09 1012.15 1012.07 1011.36 1009.15 1006.52 1006.26 1004.73 1003.89 1003.90 1003.97 1004.28 1004.38 1004.20 1004.10 1004.80 1004.42 1003.66 1003.46 1003.36 1003.62 1003.75 1003.85 1003.86 1004.12 1004.49 1004.81 1004.87 1005.12 1005.56 1005.85 1005.73 1005.92 1006.21 1006.48
1007.33 1008.13 1008.84 1008.47 1008.25 1008.31 1009.13 1009.74 1010.37 1011.11 1011.81 1011.53 1011.03 1008.80 1006.69 1005.85 1005.88 1005.43 1004.88 1003.87 1003.62 1003.74 1003.79 1003.76 1003.94 1003.68 1003.75 1003.39 1003.55 1003.95 1002.99 1002.99 1003.16 1003.49 1003.82 1004.04 1004.24 1004.50 1004.73 1004.91 1004.95 1005.15 1005.61 1005.65
1008.45 1009.34 1009.94 1010.14 1009.95 1010.03 1010.37 1010.21 1010.85 1011.38 1011.84 1010.47 1009.35 1007.67 1006.55 1006.52 1006.69 1005.80 1005.32 1004.60 1003.57 1003.18 1003.01 1002.57 1003.07 1003.40 1003.36 1003.49 1003.05 1003.07 1003.30 1003.11 1002.95 1003.27 1003.50 1003.62 1003.77 1003.90 1004.03 1004.03 1004.30 1004.65 1005.01 1005.23
1009.70 1010.55 1010.89 1010.70 1010.51 1010.37 1010.12 1010.17 1010.35 1010.46 1009.75 1009.59 1008.09 1007.82 1006.69 1006.91 1007.15 1006.81 1006.19 1005.11 1004.14 1003.52 1003.01 1002.82 1002.97 1003.42 1003.33 1002.98 1002.95 1002.73 1003.27 1003.90 1002.75 1002.85 1003.09 1003.20 1003.29 1003.54 1003.71 1003.88 1003.94 1004.01 1004.28 1004.47
1010.37 1011.09 1011.37 1011.19 1010.79 1010.23 1009.80 1009.57 1009.19 1009.03 1008.79 1008.13 1007.66 1007.00 1007.34 1007.21 1007.58 1007.04 1006.53 1005.75 1005.10 1005.03 1004.76 1004.14 1003.91 1004.11 1003.73 1003.41 1002.99 1002.83 1002.79 1003.33 1003.00 1002.75 1002.74 1002.69 1002.79 1002.88 1003.20 1003.40 1003.55 1003.76 1003.93 1003.93
1010.94 1011.55 1012.17 1011.62 1010.85 1010.42 1009.43 1008.21 1008.36 1008.53 1008.75 1008.65 1008.61 1007.94 1007.41 1007.46 1007.37 1006.95 1006.65 1006.43 1006.36 1005.97 1005.46 1004.98 1004.58 1004.54 1004.07 1003.77 1003.55 1003.40 1002.73 1002.57 1002.63 1002.12 1002.10 1002.08 1002.04 1002.16 1002.25 1002.47 1002.77 1002.96 1003.10 1003.17
1010.70 1011.82 1012.44 1012.29 1011.62 1010.68 1008.87 1008.25 1008.34 1008.75 1009.03 1009.08 1008.99 1008.12 1007.52 1007.53 1007.08 1006.63 1006.69 1006.45 1006.32 1006.06 1005.57 1004.98 1004.55 1004.13 1003.82 1003.58 1003.19 1002.85 1002.60 1002.32 1002.00 1001.73 1001.41 1001.16 1001.21 1001.21 1001.30 1001.63 1001.99 1002.31 1002.46 1002.51
1010.33 1011.51 1012.61 1012.91 1012.54 1010.67 1009.06 1009.04 1008.87 1008.85 1009.23 1009.08 1008.85 1008.49 1008.25 1007.90 1007.29 1006.74 1006.47 1006.43 1006.22 1006.00 1005.58 1005.13 1004.40 1003.85 1003.21 1003.12 1002.91 1002.61 1002.19 1001.86 1001.45 1001.06 1000.79 1000.71 1000.62 1000.75 1000.93 1001.17 1001.40 1001.57 1001.66 1001.67
1010.67 1011.33 1012.63 1013.09 1012.89 1011.45 1010.26 1009.49 1009.09 1009.11 1009.31 1009.41 1009.58 1009.64 1009.47 1008.93 1008.38 1007.34 1006.88 1006.48 1006.15 1005.94 1005.57 1005.23 1004.66 1004.05 1003.42 1002.84 1002.37 1002.12 1001.80 1001.47 1001.13 1000.76 1000.42 1000.18 1000.17 1000.25 1000.29 1000.29 1000.37 1000.49 1000.51 1000.27
1011.36 1012.17 1012.74 1013.05 1012.65 1011.11 1010.54 1009.92 1008.99 1009.70 1010.55 1009.99 1010.02 1009.88 1009.55 1009.23 1008.81 1007.66 1006.81 1006.09 1005.65 1005.37 1004.94 1004.48 1004.03 1003.60 1003.15 1002.56 1002.21 1001.74 1001.32 1000.89 1000.55 1000.06 999.71 999.53 999.47 999.38 999.20 999.17 999.27 999.29 999.31 999.18
1011.40 1012.06 1012.44 1012.69 1012.32 1011.51 1011.01 1010.60 1010.70 1010.91 1010.19 1010.12 1009.81 1009.38 1008.92 1008.30 1007.63 1007.06 1006.55 1005.95 1005.34 1004.65 1004.18 1003.91 1003.38 1002.85 1002.49 1002.09 1001.72 1000.91 1000.31 1000.09 999.83 999.42 998.95 998.45 998.16 997.96 997.77 997.69 997.67 997.81 997.87 997.82
1011.50 1011.68 1012.11 1012.25 1011.53 1011.14 1010.95 1010.95 1011.14 1011.16 1010.85 1010.28 1009.99 1009.34 1008.73 1007.98 1007.29 1006.42 1005.99 1005.30 1004.74 1004.40 1003.96 1003.42 1002.88 1002.11 1001.72 1001.15 1000.54 999.73 999.24 999.07 998.68 998.23 997.63 997.08 996.75 996.49 996.32 996.16 996.22 996.35 996.35 996.44
1011.52 1011.35 1011.70 1011.94 1011.68 1011.26 1011.07 1011.02 1010.81 1010.80 1010.62 1010.13 1009.65 1009.00 1008.35 1007.57 1006.73 1005.80 1004.97 1004.51 1003.99 1003.39 1002.87 1002.40 1001.99 1001.34 1000.66 1000.14 999.50 998.90 998.50 998.08 997.52 996.93 996.46 995.97 995.47 995.00 994.69 994.59 994.58 994.66 994.72 994.71
1012.07 1011.96 1012.23 1011.99 1011.54 1011.29 1010.45 1010.43 1010.40 1009.93 1009.95 1009.62 1009.22 1008.81 1008.13 1007.05 1006.29 1006.03 1004.78 1003.84 1003.45 1002.58 1001.94 1001.69 1001.15 1000.57 999.85 998.97 998.51 998.16 997.50 996.81 996.19 995.75 995.02 994.26 993.87 993.41 992.73 992.29 992.17 992.45 992.53 992.97
1011.95 1012.07 1012.57 1012.48 1012.03 1011.97 1011.18 1010.64 1010.54 1010.10 1009.83 1009.27 1008.75 1007.91 1007.40 1007.03 1005.93 1005.04 1004.23 1003.59 1002.65 1002.07 1001.22 1000.76 1000.23 999.66 998.56 997.94 997.48 996.81 996.21 995.69 995.11 994.23 993.45 993.16 992.19 991.13 990.15 989.17 988.47 988.93 990.13 991.00
Wind_Speed
4 3 7 12 10 10 7 7 11 10 5 1 5 9 12 10 11 17 11 8 7 10 10 6 8 9 8 8 9 8 8 2 2 2 3 4 8 5 5 3 2 4 5 7
5 6 15 10 13 9 11 10 7 6 4 4 8 11 15 6 8 8 9 8 9 8 7 8 10 9 8 9 8 8 8 7 4 3 1 2 3 4 1 4 4 6 3 7
7 12 9 9 11 10 9 6 4 6 5 5 5 8 9 7 5 7 6 7 7 12 11 10 12 13 10 10 9 8 8 7 4 3 2 3 1 1 2 3 2 3 5 5
7 8 5 8 6 3 4 5 5 7 2 3 5 9 9 7 7 7 9 8 9 8 9 15 16 12 13 9 8 9 8 6 3 4 3 3 3 0 3 2 2 3 4 5
13 7 9 7 8 6 9 8 6 4 4 2 1 2 10 7 13 11 11 11 10 11 15 16 17 16 10 10 8 8 8 7 5 5 4 3 2 1 2 3 5 3 6 6
12 5 6 10 13 8 7 3 3 3 2 6 6 7 13 13 8 7 6 10 14 18 13 18 12 12 10 9 9 8 9 7 8 7 6 7 6 5 3 3 3 4 3 5
12 13 11 7 8 14 3 5 5 6 5 14 5 5 14 12 8 12 7 14 20 19 10 16 18 14 13 12 10 10 10 8 8 9 8 9 9 7 7 6 5 4 2 3
6 9 9 9 6 8 9 9 8 8 7 11 2 7 9 8 10 5 5 14 11 8 15 20 20 17 16 14 12 12 10 8 9 9 10 8 8 5 5 5 3 3 2 4
4 5 1 3 1 4 3 1 6 2 3 3 4 8 11 12 10 6 4 12 13 7 6 15 14 14 10 10 13 13 12 10 11 12 9 8 7 7 7 8 5 4 4 4
4 4 3 1 4 3 5 4 1 2 4 7 7 10 11 8 5 9 5 6 13 18 9 3 5 9 10 10 12 11 12 16 15 12 8 8 9 8 8 6 7 7 6 4
3 3 5 1 4 5 3 2 5 4 4 2 3 6 5 2 3 3 2 6 9 4 6 7 9 6 9 8 8 10 10 13 11 10 11 9 8 8 7 7 8 7 5 6
3 3 4 7 8 2 1 3 5 5 4 2 4 7 14 5 7 7 7 1 3 3 3 3 2 4 8 7 7 8 9 11 13 13 11 12 10 8 8 8 9 8 7 7
2 2 4 9 7 6 6 2 2 3 3 8 3 7 5 10 6 11 7 7 6 4 5 2 5 7 5 2 1 8 7 11 10 10 11 10 11 10 11 11 9 7 7 7
4 1 6 6 6 4 10 11 5 3 3 5 10 15 16 10 8 13 9 10 8 6 7 6 5 6 7 5 2 4 6 6 3 2 3 6 9 11 12 11 9 8 9 8
4 2 3 5 7 9 12 10 15 13 16 9 16 13 16 2 5 5 7 9 6 8 9 7 11 8 8 7 4 2 2 7 3 5 5 7 7 8 8 8 8 9 9 10
1 3 3 4 9 12 13 14 21 15 10 11 16 18 2 2 5 5 6 7 11 10 10 8 9 7 6 7 6 4 4 8 6 6 7 8 7 7 8 8 8 7 9 9
5 5 3 5 6 4 9 8 6 2 6 5 5 3 3 4 4 6 3 5 6 6 7 10 11 8 7 7 6 8 8 7 8 7 8 8 8 8 8 8 8 9 10 10
5 5 4 4 4 1 6 2 6 10 5 3 3 7 6 3 5 7 6 4 4 6 6 8 8 9 8 8 8 8 8 9 9 11 11 10 10 10 8 7 7 7 6 8
6 5 1 3 3 7 4 4 3 2 2 5 7 9 8 8 6 5 3 7 6 6 7 7 9 11 11 10 10 8 9 9 11 12 14 9 6 6 6 7 7 7 7 10
5 6 4 2 2 4 1 6 8 5 5 9 9 7 6 8 8 7 7 7 6 8 8 7 9 11 10 10 9 7 9 7 7 7 8 7 6 7 8 9 10 12 14 16
3 3 4 1 3 5 7 13 14 2 4 8 4 5 5 4 6 12 12 11 7 7 11 13 14 14 15 14 13 15 13 14 11 11 9 9 10 12 14 14 14 13 14 15
2 2 1 2 4 5 6 8 3 5 7 10 9 7 10 11 13 17 12 14 13 17 18 18 15 15 16 14 13 17 18 13 13 14 15 16 17 15 14 17 15 15 15 16
2 3 3 6 5 2 6 2 2 5 10 11 13 15 16 12 19 13 18 17 15 17 17 16 16 19 17 16 15 14 14 13 13 14 16 16 16 16 17 17 15 13 13 14
4 4 1 5 2 5 2 3 2 5 10 14 13 15 16 19 21 20 19 18 17 20 17 18 17 18 17 16 17 18 17 17 17 19 19 16 18 18 15 12 12 13 14 13
3 3 3 5 4 12 1 12 14 17 13 13 16 16 18 20 17 22 23 19 20 19 13 15 17 16 19 18 18 17 18 18 16 16 17 17 15 17 17 18 17 17 17 14
2 4 3 5 3 5 13 12 14 13 14 17 17 19 14 16 21 20 22 20 15 17 15 16 17 17 19 18 17 17 16 17 16 17 15 13 14 16 16 17 18 33 27 22
Wind_Direction
287 91 233 238 204 227 232 249 261 277 235 246 251 264 272 269 277 243 242 199 251 237 231 170 154 143 134 132 139 144 132 107 105 57 80 4 206 167 204 246 313 216 204 210
359 254 250 242 257 227 240 239 251 264 279 297 286 283 286 259 256 220 216 229 211 173 183 163 151 152 171 153 146 142 143 137 126 126 94 154 187 285 238 154 61 323 319 251
195 248 272 237 256 253 252 222 242 252 291 306 318 292 303 302 276 296 234 213 200 176 178 175 170 176 167 165 165 155 152 144 142 128 103 58 30 297 284 301 162 100 282 294
238 263 298 317 293 286 234 231 261 290 323 250 81 288 289 288 300 286 277 276 247 201 193 183 183 179 171 171 150 144 150 144 149 129 104 115 152 354 307 219 307 142 170 301
249 266 282 299 262 272 246 235 236 236 245 91 87 272 269 304 285 268 283 284 259 215 194 197 193 181 165 146 150 155 151 157 162 147 141 151 229 221 267 320 332 244 169 186
237 234 180 237 267 261 257 226 31 47 109 273 220 180 286 274 262 299 266 285 291 286 204 200 188 153 153 158 156 153 156 173 175 170 173 180 199 218 229 255 252 274 286 287
252 252 255 244 252 273 249 77 298 301 286 264 257 243 251 279 259 245 298 317 293 263 187 165 159 160 166 169 162 166 174 186 183 178 185 196 206 212 212 216 219 227 222 276
214 279 212 235 185 214 230 197 214 255 247 275 317 236 254 237 262 265 300 348 313 229 168 165 157 165 170 172 170 176 182 181 189 194 206 202 203 198 215 230 248 260 249 243
226 244 195 249 263 99 282 235 174 105 49 335 277 292 304 283 286 244 62 37 343 25 129 148 161 169 169 170 184 183 187 202 197 198 201 202 201 196 205 220 222 232 243 257
273 310 187 257 9 335 161 192 225 86 209 249 240 257 250 302 325 288 119 95 14 3 348 318 200 187 190 190 193 190 195 199 204 208 200 203 203 198 202 199 213 219 230 239
257 208 279 128 186 213 347 344 76 123 178 199 292 260 243 194 238 295 174 116 112 124 37 11 318 245 200 195 189 203 199 204 206 198 207 204 209 211 200 196 204 204 214 240
326 180 216 229 234 204 94 153 134 141 241 227 238 269 262 323 290 180 152 127 186 148 33 353 297 341 308 291 240 220 209 204 208 206 205 209 213 198 192 207 214 206 209 219
339 346 357 345 355 18 27 6 86 106 112 199 225 250 249 317 345 308 290 177 227 226 191 227 315 326 312 42 308 304 242 208 209 204 205 209 205 199 206 213 215 203 221 232
41 95 177 231 239 272 296 294 220 169 208 218 221 270 272 287 301 328 287 288 275 202 247 243 260 298 290 244 52 358 278 266 280 301 255 221 213 212 215 217 211 206 213 223
107 193 224 244 254 264 274 285 287 222 231 220 260 243 258 261 293 302 316 337 301 268 248 248 252 259 269 289 291 95 301 287 161 160 183 213 222 218 212 210 215 216 219 227
19 250 209 247 248 251 250 244 242 264 273 261 259 256 108 195 274 307 329 5 25 27 16 3 4 305 271 275 264 249 225 261 244 225 218 219 213 204 208 216 219 222 226 229
184 164 174 261 232 309 289 243 219 289 347 9 306 353 296 279 318 299 340 0 343 359 346 345 342 318 309 300 276 286 281 278 260 235 233 222 205 206 208 211 213 218 221 224
191 150 149 252 31 301 242 223 136 113 75 67 262 353 314 296 289 287 198 184 253 283 282 284 283 287 281 273 264 260 259 263 272 267 234 217 215 214 206 203 207 216 221 229
203 141 249 146 188 278 346 11 353 36 154 7 350 343 340 339 333 318 223 341 312 299 289 284 290 292 302 286 270 267 270 264 264 259 249 238 216 222 221 224 227 226 230 241
63 67 117 75 147 256 202 319 315 298 239 25 29 5 339 326 316 286 308 298 305 300 295 296 304 308 309 297 301 301 294 289 277 261 249 241 231 228 228 230 240 250 254 258
36 18 147 238 252 284 5 330 314 99 304 355 334 300 298 261 245 281 288 290 280 283 297 303 302 295 288 279 278 277 279 276 273 268 257 249 247 245 246 248 249 250 249 248
142 164 212 191 243 269 342 327 351 330 315 319 317 304 300 293 305 302 304 299 300 302 304 300 296 293 290 285 285 279 272 276 274 267 257 256 257 249 247 248 245 242 239 240
68 175 205 172 230 218 319 87 53 340 311 307 310 306 299 290 305 297 300 290 280 287 289 290 293 292 285 277 268 268 275 273 273 271 265 262 257 253 251 245 237 233 231 238
336 21 65 358 197 321 190 210 328 315 303 300 298 300 307 303 303 296 304 305 300 293 289 288 290 285 286 284 276 271 274 271 269 271 269 269 266 260 246 236 235 241 239 234
221 26 334 270 344 338 273 338 316 316 310 313 305 300 297 305 319 315 298 298 299 291 292 292 289 287 280 276 278 280 276 271 272 273 268 262 262 257 248 239 235 237 236 231
195 189 141 245 310 276 284 301 313 312 314 301 303 304 313 310 303 300 306 296 300 303 292 290 285 281 279 281 281 277 275 273 269 267 268 269 264 260 254 248 242 221 218 208